Regional Weather Roundup
Issued by NWS

Home | Current Version | Previous Version | Graphics & Text | Print | Product List | Glossary On
Versions: 1 2 3 4 5 6 7 8 9 10 11 12 13 14 15 16 17 18 19 20 21 22 23 24 25 26 27 28 29 30 31 32 33 34 35 36 37 38 39 40 41 42 43 44 45 46 47 48 49 50
000
ASUS44 KMEG 191400
RWRTN
TENNESSEE HOURLY STATE WEATHER ROUNDUP
NATIONAL WEATHER SERVICE MEMPHIS TN
800 AM CST MON FEB 19 2018

TNZ002-004-019-021-049-052-054-088>092-191500-
WEST TENNESSEE

CITY           SKY/WX    TMP DP  RH WIND       PRES   REMARKS
MEMPHIS INTL   CLOUDY    63  61  93 S15G24    30.10R
NWS MEMPHIS      N/A     62 N/A N/A MISG        N/A
JACKSON        FAIR      62  59  90 S14       30.11R
DYERSBURG      CLOUDY    62  58  86 S10       30.09R
$$

TNZ008-025-027-028-033-062-065-066-191500-
NORTH MIDDLE TENNESSEE

CITY           SKY/WX    TMP DP  RH WIND       PRES   REMARKS
NASHVILLE      PTSUNNY   63  57  81 S8        30.19R
CLARKSVILLE    FAIR      62  55  77 S7        30.13R
SMYRNA         FAIR      62  58  86 S8        30.21R
CROSSVILLE     CLOUDY    57  55  93 S10G21    30.28R
$$

TNZ061-075-076-078-094-096-097-191500-
SOUTH MIDDLE TENNESSEE

CITY           SKY/WX    TMP DP  RH WIND       PRES   REMARKS
$$

TNZ017-018-042-046-047-191500-
NORTHEAST TENNESSEE

CITY           SKY/WX    TMP DP  RH WIND       PRES   REMARKS
TRI CITIES     PTSUNNY   52  52 100 E3        30.32R
$$

TNZ012-013-036-069-073-074-191500-
CENTRAL EAST TENNESSEE

CITY           SKY/WX    TMP DP  RH WIND       PRES   REMARKS
KNOXVILLE      PTSUNNY   53  50  89 NE5       30.28S
OAK RIDGE      CLOUDY    53  49  86 CALM      30.31R
$$

TNZ083-085-099-191500-
SOUTHEAST TENNESSEE

CITY           SKY/WX    TMP DP  RH WIND       PRES   REMARKS
CHATTANOOGA    CLOUDY    59  56  89 S9        30.30R FOG
$$

SKY/WX REPORTED AS FAIR MEANS FEW OR NO CLOUDS BELOW
12 THOUSAND FEET.





USA.gov is the U.S. government's official web portal to all federal, state and local government web resources and services.